METEOR 2-5 DEB

Satellite information

Favourite Embed

Satellite Type and Status

DEBRISIN ORBIT

Key statistics

Satellite METEOR 2-5 DEB at a glance.

Uptime

16747

Days in orbit

Revolutions

≈ 14.4

Per day

Orbit

LEO

Low Earth Orbit

Inclination

81.2

Latest

Satellite identification and parameters

Extended collection of information and parameters for METEOR 2-5 DEB.

Object identification

Identified? True

Debris? True

Object name: METEOR 2-5 DEB

International designator: 1979-095CB

Object number (NORAD): 38534

Object ID (CCSDS): 38534

Country: COMMONWEALTH OF INDEPENDENT STATES (CIS)

Current information (Y/N): Y

RCS size: SMALL

Orbital parameters

Period: 100.213 minutes

Inclination: 81.2147 deg

SMA: 7146.761 km

Apoapsis: 781.378 km

Periapsis: 755.874 km

RAAN: 59.3865 deg

Eccentricy: 0.00178427

Argument of periapsis: 79.4444 deg

Mean anomaly: 280.875 deg

Mean motion: 14.36940758 rev/day

Mean motion (dot): 0.00013218 rev/day2

B* drag term: 0.0044474236 1/REarth

Two-line elements (TLE)

Creation date: Sept. 1, 2025, 10:16 a.m.

Reference frame: TEME

Reference center: EARTH

Epoch: Sept. 1, 2025, 5:18 a.m. UTC

TLE line 0: 0 METEOR 2-5 DEB

TLE line 1: 1 38534U 79095CB 25244.22149084 .00013218 00000-0 44474-2 0 9990

TLE line 2: 2 38534 81.2147 59.3865 0017843 79.4444 280.8750 14.36940758575272

Live tracking on map

Real-time ground track for satellite METEOR 2-5 DEB.

In-orbit conjunctions

A list of the most updated potential collisions computed for object METEOR 2-5 DEB.

Target Orbit TCA Probability of collision Miss distance Type
CZ-6A DEB LEO 2025-01-20 03:15:30 0.001465555 142.0 (m) DEBRIS
COSMOS 841 LEO 2024-11-23 12:29:10 0.0002222729 95.0 (m) PAYLOAD
IRIDIUM 33 DEB LEO 2024-11-15 01:48:46 0.0004479281 574.0 (m) DEBRIS

Associated space launch

Second generation soviet meteorological satellite

METEOR 2-5 DEB was lifted into orbit during the mission ‘Vostok 8A92M | Meteor-2 5’, on board a Vostok 8A92M space rocket.

The launch took place on Oct. 31, 1979, 9:25 a.m. from 43/4 (43R).

For more information about the launch, click the button.

Launch to space Vostok 8A92M | Meteor-2 5
Vostok 8A92M | Meteor-2 5

Agency: N/A

Status: Launch Successful

Launch date: Oct. 31, 1979, 9:25 a.m. UTC

Rocket: Vostok 8A92M

Launch pad: 43/4 (43R)

Location: Plesetsk Cosmodrome, Russian Federation

...

Latest news about this satellite

There are no fresh news available about this satellite. Check back as we update our databases every day.


Newsletter sign-up

Weekly statistics, charts and insights to help you stay on top of the space industry.